Miscellaneous Local Product
Issued by NWS Hastings, NE

Home | Current Version | Previous Version | Text Only | Print | Product List | Glossary Off
Versions: 1 2 3 4 5 6 7 8 9 10 11 12 13 14 15 16 17 18 19 20 21 22 23 24 25 26 27 28 29 30 31 32 33 34 35 36 37 38 39 40 41 42 43 44 45 46 47 48 49 50

000
AXUS43 KGID 040802
MISGRI

GID CWA HOURLY WEATHER ROUNDUP
NATIONAL WEATHER SERVICE HASTINGS NE
300 AM CDT SAT JUL 04 2015

NOTE: "FAIR" INDICATES FEW OR NO CLOUDS BELOW 12,000 FEET WITH NO
SIGNIFICANT WEATHER AND/OR OBSTRUCTIONS TO VISIBILITY.

...SOUTH CENTRAL NEBRASKA...

CITY           SKY/WX    TMP DP  RH WIND       PRES   REMARKS
GRAND ISLAND   CLEAR     62  59  90 S6        30.01F
HASTINGS       CLEAR     65  61  87 S7        30.01F
KEARNEY        CLEAR     61  57  88 S7        30.02S
ORD            CLEAR     62  60  93 SE3       29.99F FOG
YORK           MOCLDY    61  59  94 S3        30.01S FOG
AURORA         CLEAR     64  62  95 S6        30.01S
LEXINGTON      PTCLDY    64  61  91 SE6       30.02S
HOLDREGE       CLEAR     61  58  91 S5        30.02S
HEBRON         CLEAR     62  60  91 CALM      30.01F

...NEBRASKA PANHANDLE...

CITY           SKY/WX    TMP DP  RH WIND       PRES   REMARKS
CHADRON        MOCLDY    69  57  65 SW6       29.95R
ALLIANCE       MOCLDY    66  60  81 S12       30.00S
SCOTTSBLUFF    MOCLDY    70  58  65 SE5       30.01R
SIDNEY         MOCLDY    66  59  78 S14       30.03F

...WESTERN AND NORTH CENTRAL NEBRASKA...

CITY           SKY/WX    TMP DP  RH WIND       PRES   REMARKS
VALENTINE      CLEAR     64  59  83 SW6       29.96F
AINSWORTH      CLEAR     62  61  96 S7        29.98F
ONEILL         CLEAR     63  63  98 S5        29.99F FOG
BROKEN BOW     CLEAR     61  58  90 SE5       30.00F
IMPERIAL       PTCLDY    67  57  70 S10       30.02F
NORTH PLATTE   CLEAR     66  59  78 SE5       30.02S
MCCOOK         PTCLDY    66  59  78 SE8       30.01F

...EASTERN NEBRASKA...

CITY           SKY/WX    TMP DP  RH WIND       PRES   REMARKS
NORFOLK        CLEAR     59  58  96 CALM      29.99S FOG
SO SIOUX CITY  CLEAR     60  56  86 E6        29.98S
TEKAMAH        CLEAR     57  55  93 SE5       29.98S
COLUMBUS         N/A     57  52  82 CALM      29.99S VSB 1/2
ALBION         CLEAR     61  58  88 CALM      30.01S FOG
OMAHA EPPLEY   CLEAR     62  56  80 CALM      29.99S
OFFUTT AFB     CLEAR     54  54  99 CALM      29.98S
MILLARD          N/A     59  58  96 CALM      29.99S FOG
LINCOLN        CLEAR     65  59  81 S3        30.00F
NEBRASKA CITY  CLEAR     65  49  56 CALM      30.00S
BEATRICE       CLEAR     61  58  90 CALM      30.00F
FALLS CITY     CLEAR     62  57  83 CALM      29.98S

...NORTHERN KANSAS...

CITY           SKY/WX    TMP DP  RH WIND       PRES   REMARKS
GOODLAND       PTCLDY    67  59  75 S12       30.04F
HILL CITY      CLEAR     64  60  87 E3        30.02S
NORTON         SUNNY     64  57  77 SE6       30.01F
PHILLIPSBURG   CLEAR     66  63  88 NE3       30.01S FOG
SMITH CENTER   CLEAR     63  61  94 E7        30.01S
HAYS           CLEAR     64  55  72 CALM      30.01S
RUSSELL        CLEAR     64  62  93 SE6       30.00S
CONCORDIA      CLEAR     62  57  83 CALM      30.00F
SALINA         CLEAR     65  58  78 SE5       29.99F
TOPEKA         CLEAR     63  61  93 CALM      29.98F FOG



USA.gov is the U.S. government's official web portal to all federal, state and local government web resources and services.